Location: Unspecified
(0.0000°N, 0.0000°E)
Time: 11:32:18
(UTC+00:00)

Vanguard 1 - Pass Details

Date: 27 November 2019
Orbit: 652 x 3831 km, 34.3° (Epoch: 07 December)

Event Time Altitude Azimuth Distance (km) Brightness Sun altitude
Rises 05:16:24 0° 241° (WSW) 7,806 14.3 -7.2°
Reaches altitude 10° 05:21:41 10° 244° (WSW) 6,900 14.0 -6.0°
Maximum altitude 05:44:55 63° 320° (NW) 3,678 12.8 -0.6°
Drops below altitude 10° 06:01:12 10° 39° (NE) 5,050 14.0 3.2°
Sets 06:04:25 0° 43° (NE) 5,707 14.3 4.0°
